Location: Proctor
(47.8934°N, 114.3048°W)
Time: 10:17:24
(UTC+00:00)

Vanguard 2 Rocket - All Passes

Search period start: 21 June 2024 00:00
Search period end: 01 July 2024 00:00
Orbit: 555 x 3304 km, 32.9° (Epoch: 20 June)

Date Brightness Start Highest point End Pass type
(mag) Time Alt. Az. Time Alt. Az. Time Alt. Az.
21 Jun - 07:45:06 10° S 07:56:46 20° SE 08:08:32 10° E visible
21 Jun - 09:54:13 10° SW 10:11:26 38° SSE 10:26:37 10° E visible
21 Jun - 12:08:49 10° WSW 12:27:09 47° S 12:40:37 10° ESE daylight
21 Jun - 14:26:17 10° W 14:41:51 38° SSW 14:52:17 10° SE daylight
21 Jun - 16:46:41 10° WSW 16:54:06 16° SW 16:59:54 10° SSW daylight
22 Jun - 06:47:04 10° SSE 06:53:29 13° SE 07:00:07 10° ESE visible
22 Jun - 08:51:33 10° SSW 09:07:19 33° SSE 09:22:36 10° E visible
22 Jun - 11:04:28 10° SW 11:22:55 47° S 11:37:52 10° ESE daylight
22 Jun - 13:20:55 10° WSW 13:38:24 44° SSW 13:50:34 10° SE daylight
22 Jun - 15:39:49 10° W 15:51:48 25° SW 16:00:20 10° SSE daylight
23 Jun - 07:49:53 10° S 08:03:28 26° SE 08:17:40 10° E visible
23 Jun - 10:00:45 10° SW 10:18:33 43° SSE 10:34:34 10° E visible
23 Jun - 12:15:58 10° WSW 12:34:28 48° S 12:48:21 10° ESE daylight
23 Jun - 14:33:48 10° W 14:48:59 34° SSW 14:59:32 10° SSE daylight
23 Jun - 16:56:46 10° WSW 17:00:52 12° SW 17:04:29 10° SW daylight
24 Jun - 06:49:39 10° S 07:00:03 18° SE 07:11:19 10° E visible
24 Jun - 08:57:46 10° SW 09:14:15 38° SSE 09:30:41 10° E visible
24 Jun - 11:11:30 10° WSW 11:30:10 49° S 11:45:37 10° ESE daylight
24 Jun - 13:28:18 10° W 13:45:36 41° SSW 13:58:01 10° SE daylight
24 Jun - 15:48:04 10° W 15:58:38 20° SW 16:06:41 10° S daylight
25 Jun - 05:53:32 10° SE 05:57:03 11° SE 06:00:43 10° ESE visible
25 Jun - 07:55:36 10° SSW 08:10:13 32° SSE 08:26:03 10° E visible
25 Jun - 10:07:38 10° SW 10:25:40 47° S 10:42:21 10° ESE visible
25 Jun - 12:23:15 10° WSW 12:41:41 47° SSW 12:55:54 10° SE daylight
25 Jun - 14:41:32 10° W 14:55:55 29° SW 15:06:25 10° SSE daylight
26 Jun - 06:54:28 10° S 07:06:37 24° SE 07:20:28 10° E visible
26 Jun - 09:04:26 10° SW 09:21:13 43° SSE 09:38:31 10° E visible
26 Jun - 11:18:43 10° WSW 11:37:21 50° S 11:53:13 10° ESE daylight
26 Jun - 13:35:48 10° W 13:52:37 37° SSW 14:05:10 10° SSE daylight
26 Jun - 15:57:08 10° WSW 16:05:17 16° SW 16:12:01 10° SSW daylight
27 Jun - 05:54:57 10° SSE 06:03:30 16° SE 06:13:12 10° E visible
27 Jun - 08:01:56 10° SSW 08:17:02 37° SSE 08:34:02 10° E visible
27 Jun - 10:14:44 10° WSW 10:32:48 50° S 10:49:57 10° ESE visible
27 Jun - 12:30:39 10° W 12:48:47 44° SSW 13:03:13 10° SE daylight
27 Jun - 14:49:36 10° W 15:02:39 24° SW 15:12:46 10° S daylight
28 Jun - 07:00:17 10° SSW 07:13:15 30° SE 07:28:47 10° E visible
28 Jun - 09:11:24 10° SW 09:28:15 47° SSE 09:46:08 10° ESE visible
28 Jun - 11:26:04 10° WSW 11:44:30 48° S 12:00:37 10° ESE daylight
28 Jun - 13:43:30 10° W 13:59:28 32° SSW 14:11:58 10° SSE daylight
28 Jun - 16:09:04 10° WSW 16:11:47 11° SW 16:14:21 10° SW daylight
29 Jun - 05:59:41 10° S 06:10:00 22° SE 06:22:32 10° E visible
29 Jun - 08:08:42 10° SW 08:23:55 42° SSE 08:41:44 10° E visible
29 Jun - 10:22:02 10° WSW 10:39:56 50° S 10:57:24 10° ESE visible
29 Jun - 12:38:12 10° W 12:55:45 40° SSW 13:10:15 10° SE daylight
29 Jun - 14:58:17 10° W 15:09:14 19° SW 15:18:18 10° S daylight
30 Jun - 05:01:13 10° SSE 05:07:15 13° SE 05:14:09 10° ESE visible
30 Jun - 07:06:42 10° SSW 07:20:00 35° SSE 07:36:40 10° E visible
30 Jun - 09:18:36 10° WSW 09:35:19 49° S 09:53:37 10° ESE visible
30 Jun - 11:33:32 10° W 11:51:32 46° SSW 12:07:48 10° SE daylight
30 Jun - 13:51:30 10° W 14:06:09 27° SW 14:18:14 10° S daylight
